EXS257 EGBB-LTBJ

Flight info

Callsign EXS257
Flight time 3h 41m
Altitude 37000
Route ADMEX Y321 EMKUK UL612 COWLY Q70 BIG L15 MOTOX RUCAC LESDO BUBLI LUVAL SHARA DEVDI RIPUS RESIA BORMI PEVAL CRE DIGOT SIRMI VRANA NILKU MEDUX UM867 KOGAT RUGAS SUTIS BELGI UN131 DUGLA OVZOK
Aircraft A20N/M-SDE2E3FGHIJ1RWXY/LB1

Departure

Time 2026-05-05 14:13
Airport Birmingham Airport (EGBB)

Arrival

Time 2026-05-05 17:54
Airport Adnan Menderes International Airport (LTBJ)
Time Latitude Longitude Altitude Speed Heading
2026-05-05 13:22 52.45145 -1.73431 333 ft 0 kts 145°
2026-05-05 14:02 52.45147 -1.73433 333 ft 2 kts 145°
2026-05-05 14:02 52.45168 -1.73457 329 ft 4 kts 152°
2026-05-05 14:02 52.45192 -1.73470 329 ft 4 kts 187°
2026-05-05 14:03 52.45212 -1.73455 329 ft 1 kts 236°
2026-05-05 14:03 52.45214 -1.73449 329 ft 0 kts 236°
2026-05-05 14:05 52.45212 -1.73454 330 ft 2 kts 236°
2026-05-05 14:05 52.45200 -1.73482 328 ft 4 kts 235°
2026-05-05 14:05 52.45179 -1.73533 330 ft 6 kts 235°
2026-05-05 14:06 52.45158 -1.73581 330 ft 6 kts 235°
2026-05-05 14:06 52.45148 -1.73605 331 ft 0 kts 235°
2026-05-05 14:07 52.45146 -1.73609 331 ft 1 kts 235°
2026-05-05 14:07 52.45135 -1.73635 329 ft 4 kts 235°
2026-05-05 14:07 52.45115 -1.73685 332 ft 7 kts 236°
2026-05-05 14:07 52.45073 -1.73738 333 ft 9 kts 202°
2026-05-05 14:08 52.45012 -1.73719 331 ft 10 kts 147°
2026-05-05 14:08 52.44951 -1.73652 333 ft 11 kts 152°
2026-05-05 14:08 52.44873 -1.73662 332 ft 10 kts 195°
2026-05-05 14:08 52.44817 -1.73689 334 ft 7 kts 196°
2026-05-05 14:09 52.44764 -1.73715 335 ft 9 kts 198°
2026-05-05 14:09 52.44699 -1.73714 332 ft 10 kts 153°
2026-05-05 14:09 52.44636 -1.73643 336 ft 12 kts 145°
2026-05-05 14:09 52.44570 -1.73569 336 ft 10 kts 146°
2026-05-05 14:10 52.44524 -1.73518 337 ft 8 kts 146°
2026-05-05 14:10 52.44471 -1.73459 337 ft 10 kts 146°
2026-05-05 14:10 52.44415 -1.73404 338 ft 10 kts 162°
2026-05-05 14:10 52.44368 -1.73446 337 ft 0 kts 229°
2026-05-05 14:11 52.44366 -1.73449 336 ft 1 kts 229°
2026-05-05 14:11 52.44356 -1.73473 341 ft 4 kts 234°
2026-05-05 14:11 52.44334 -1.73524 335 ft 7 kts 236°
2026-05-05 14:12 52.44330 -1.73616 338 ft 9 kts 297°
2026-05-05 14:12 52.44384 -1.73688 338 ft 12 kts 324°
2026-05-05 14:12 52.44632 -1.73962 334 ft 82 kts 326°
2026-05-05 14:12 52.45298 -1.74698 326 ft 147 kts 327°
2026-05-05 14:13 52.46231 -1.75758 667 ft 173 kts 325°
2026-05-05 14:13 52.47209 -1.77040 1224 ft 190 kts 321°
2026-05-05 14:13 52.48284 -1.78508 1724 ft 214 kts 321°
2026-05-05 14:13 52.49515 -1.80079 2300 ft 229 kts 333°
2026-05-05 14:14 52.51000 -1.80650 3402 ft 219 kts
2026-05-05 14:14 52.52417 -1.79842 4332 ft 221 kts 36°
2026-05-05 14:14 52.53380 -1.77881 5101 ft 228 kts 66°
2026-05-05 14:14 52.53737 -1.75312 5897 ft 234 kts 86°
2026-05-05 14:15 52.53667 -1.72637 6709 ft 237 kts 97°
2026-05-05 14:15 52.53433 -1.70356 7323 ft 241 kts 101°
2026-05-05 14:15 52.52916 -1.67689 8013 ft 248 kts 117°
2026-05-05 14:15 52.51901 -1.65384 8711 ft 253 kts 136°
2026-05-05 14:16 52.50583 -1.63350 9250 ft 269 kts 137°
2026-05-05 14:16 52.49178 -1.61128 9581 ft 291 kts 136°
2026-05-05 14:16 52.47720 -1.58778 10224 ft 297 kts 136°
2026-05-05 14:16 52.46203 -1.56432 10996 ft 299 kts 142°
2026-05-05 14:17 52.44479 -1.54504 11756 ft 302 kts 150°
2026-05-05 14:17 52.42623 -1.52700 12075 ft 322 kts 150°
2026-05-05 14:17 52.40632 -1.50752 12284 ft 343 kts 150°
2026-05-05 14:17 52.38546 -1.48701 12775 ft 353 kts 150°
2026-05-05 14:18 52.36354 -1.46877 13516 ft 355 kts 160°
2026-05-05 14:18 52.33999 -1.45651 14195 ft 356 kts 169°
2026-05-05 14:18 52.31555 -1.44939 14838 ft 359 kts 172°
2026-05-05 14:18 52.29080 -1.44263 15486 ft 362 kts 172°
2026-05-05 14:19 52.26591 -1.43568 16115 ft 366 kts 172°
2026-05-05 14:19 52.24071 -1.42856 16752 ft 369 kts 172°
2026-05-05 14:19 52.21523 -1.42134 17380 ft 372 kts 172°
2026-05-05 14:19 52.18970 -1.41411 18006 ft 375 kts 172°
2026-05-05 14:20 52.16387 -1.40680 18562 ft 378 kts 172°
2026-05-05 14:20 52.13792 -1.39948 19137 ft 380 kts 172°
2026-05-05 14:20 52.11188 -1.39215 19721 ft 381 kts 172°
2026-05-05 14:20 52.09454 -1.38726 20080 ft 383 kts 172°
2026-05-05 14:21 52.06814 -1.37984 20609 ft 385 kts 172°
2026-05-05 14:21 52.04162 -1.37240 21142 ft 388 kts 172°
2026-05-05 14:21 52.01495 -1.36491 21649 ft 390 kts 172°
2026-05-05 14:21 51.98832 -1.35611 22166 ft 394 kts 166°
2026-05-05 14:22 51.95354 -1.33582 22858 ft 400 kts 157°
2026-05-05 14:22 51.93698 -1.32251 23187 ft 402 kts 155°
2026-05-05 14:22 51.91204 -1.30207 23651 ft 405 kts 155°
2026-05-05 14:22 51.88679 -1.28155 24091 ft 407 kts 155°
2026-05-05 14:23 51.86142 -1.26105 24527 ft 409 kts 156°
2026-05-05 14:23 51.83598 -1.24059 24944 ft 410 kts 156°
2026-05-05 14:23 51.81034 -1.22002 25339 ft 413 kts 156°
2026-05-05 14:23 51.78445 -1.19928 25745 ft 414 kts 156°
2026-05-05 14:24 51.75865 -1.17864 26147 ft 416 kts 156°
2026-05-05 14:24 51.73267 -1.15788 26538 ft 418 kts 156°
2026-05-05 14:24 51.70644 -1.13694 26936 ft 420 kts 156°
2026-05-05 14:24 51.68021 -1.11603 27315 ft 421 kts 156°
2026-05-05 14:25 51.65389 -1.09495 27686 ft 423 kts 154°
2026-05-05 14:25 51.62951 -1.06798 28036 ft 429 kts 140°
2026-05-05 14:25 51.60955 -1.03209 28370 ft 435 kts 127°
2026-05-05 14:25 51.59506 -0.98917 28693 ft 440 kts 115°
2026-05-05 14:26 51.58373 -0.94349 29037 ft 442 kts 114°
2026-05-05 14:26 51.57259 -0.89721 29365 ft 443 kts 114°
2026-05-05 14:26 51.56148 -0.85187 29686 ft 444 kts 114°
2026-05-05 14:26 51.55063 -0.80844 29997 ft 445 kts 115°
2026-05-05 14:27 51.53896 -0.76246 30264 ft 446 kts 115°
2026-05-05 14:27 51.52714 -0.71625 30533 ft 448 kts 115°
2026-05-05 14:27 51.51523 -0.66995 30796 ft 450 kts 115°
2026-05-05 14:27 51.50326 -0.62355 31065 ft 451 kts 115°
2026-05-05 14:28 51.49138 -0.57755 31377 ft 451 kts 115°
2026-05-05 14:28 51.47921 -0.53051 31705 ft 450 kts 115°
2026-05-05 14:28 51.46725 -0.48436 32005 ft 450 kts 115°
2026-05-05 14:28 51.45515 -0.43783 32310 ft 450 kts 115°
2026-05-05 14:29 51.44313 -0.39165 32600 ft 450 kts 115°
2026-05-05 14:29 51.43101 -0.34522 32886 ft 450 kts 115°
2026-05-05 14:29 51.41895 -0.29910 33161 ft 450 kts 115°
2026-05-05 14:29 51.40680 -0.25272 33437 ft 450 kts 115°
2026-05-05 14:30 51.39469 -0.20661 33697 ft 450 kts 115°
2026-05-05 14:30 51.38254 -0.16045 33942 ft 450 kts 115°
2026-05-05 14:30 51.37054 -0.11492 34148 ft 450 kts 115°
2026-05-05 14:30 51.35835 -0.06877 34356 ft 450 kts 115°
2026-05-05 14:31 51.34613 -0.02260 34558 ft 450 kts 115°
2026-05-05 14:31 51.33388 0.02358 34751 ft 450 kts 115°
2026-05-05 14:31 51.32182 0.06944 34938 ft 450 kts 114°
2026-05-05 14:31 51.31000 0.11604 35130 ft 450 kts 114°
2026-05-05 14:32 51.29836 0.16244 35328 ft 450 kts 114°
2026-05-05 14:32 51.28668 0.20885 35506 ft 450 kts 114°
2026-05-05 14:32 51.27494 0.25519 35678 ft 450 kts 114°
2026-05-05 14:32 51.26317 0.30144 36003 ft 450 kts 114°
2026-05-05 14:33 51.25136 0.34766 36175 ft 450 kts 114°
2026-05-05 14:33 51.23956 0.39374 36340 ft 450 kts 114°
2026-05-05 14:33 51.22766 0.44004 36501 ft 450 kts 114°
2026-05-05 14:33 51.21579 0.48615 36673 ft 450 kts 114°
2026-05-05 14:34 51.20389 0.53233 36820 ft 450 kts 114°
2026-05-05 14:34 51.19198 0.57843 36977 ft 450 kts 114°
2026-05-05 14:34 51.18005 0.62449 37092 ft 450 kts 114°
2026-05-05 14:34 51.16810 0.67056 37083 ft 449 kts 114°
2026-05-05 14:35 51.14430 0.76208 37048 ft 448 kts 114°
2026-05-05 14:35 51.13232 0.80799 36941 ft 448 kts 114°
2026-05-05 14:35 51.12035 0.85377 36942 ft 448 kts 114°
2026-05-05 14:36 51.09631 0.94543 36938 ft 448 kts 114°
2026-05-05 14:36 51.07228 1.03672 36937 ft 448 kts 115°
2026-05-05 14:37 51.04811 1.12814 36940 ft 448 kts 115°
2026-05-05 14:37 51.02388 1.21927 36939 ft 448 kts 115°
2026-05-05 14:38 50.99952 1.31053 36936 ft 448 kts 115°
2026-05-05 14:38 50.97510 1.40166 36935 ft 449 kts 115°
2026-05-05 14:39 50.95067 1.49250 36933 ft 449 kts 115°
2026-05-05 14:39 50.92609 1.58357 36927 ft 449 kts 115°
2026-05-05 14:40 50.90119 1.67415 36932 ft 448 kts 118°
2026-05-05 14:40 50.86839 1.75732 36939 ft 444 kts 130°
2026-05-05 14:41 50.82616 1.82810 36936 ft 442 kts 139°
2026-05-05 14:41 50.78162 1.89499 36932 ft 442 kts 138°
2026-05-05 14:42 50.73711 1.96196 36933 ft 442 kts 138°
2026-05-05 14:42 50.69289 2.02831 36923 ft 442 kts 138°
2026-05-05 14:43 50.64834 2.09497 36914 ft 442 kts 138°
2026-05-05 14:43 50.60535 2.15910 36901 ft 440 kts 139°
2026-05-05 14:44 50.56088 2.22523 36891 ft 439 kts 139°
2026-05-05 14:44 50.51638 2.29122 36894 ft 440 kts 139°
2026-05-05 14:45 50.47193 2.35699 36886 ft 439 kts 139°
2026-05-05 14:45 50.42738 2.42271 36877 ft 439 kts 139°
2026-05-05 14:46 50.38290 2.48814 36867 ft 439 kts 139°
2026-05-05 14:46 50.33839 2.55344 36864 ft 438 kts 139°
2026-05-05 14:47 50.29387 2.61861 36856 ft 438 kts 139°
2026-05-05 14:47 50.24931 2.68363 36858 ft 438 kts 139°
2026-05-05 14:48 50.20480 2.74842 36855 ft 437 kts 139°
2026-05-05 14:48 50.16033 2.81298 36867 ft 437 kts 139°
2026-05-05 14:49 50.11615 2.87694 36859 ft 436 kts 139°
2026-05-05 14:49 50.07148 2.94145 36849 ft 433 kts 139°
2026-05-05 14:50 50.02764 3.00458 36847 ft 433 kts 139°
2026-05-05 14:50 49.98321 3.06840 36847 ft 432 kts 139°
2026-05-05 14:51 49.93895 3.13180 36844 ft 432 kts 139°
2026-05-05 14:51 49.89477 3.19493 36841 ft 431 kts 139°
2026-05-05 14:52 49.85065 3.25781 36827 ft 431 kts 139°
2026-05-05 14:52 49.80443 3.31685 36837 ft 430 kts 147°
2026-05-05 14:53 49.75309 3.36377 36837 ft 429 kts 153°
2026-05-05 14:53 49.70039 3.40649 36811 ft 428 kts 153°
2026-05-05 14:54 49.64769 3.44951 36815 ft 428 kts 153°
2026-05-05 14:54 49.59508 3.49240 36805 ft 428 kts 153°
2026-05-05 14:55 49.54239 3.53523 36810 ft 428 kts 153°
2026-05-05 14:55 49.49008 3.57764 36796 ft 428 kts 153°
2026-05-05 14:56 49.43746 3.62020 36795 ft 428 kts 153°
2026-05-05 14:56 49.38468 3.66279 36795 ft 429 kts 153°
2026-05-05 14:57 49.33181 3.70535 36785 ft 429 kts 153°
2026-05-05 14:57 49.27898 3.74776 36780 ft 429 kts 153°
2026-05-05 14:58 49.22607 3.79015 36792 ft 430 kts 153°
2026-05-05 14:58 49.17289 3.83263 36803 ft 432 kts 153°
2026-05-05 14:59 49.11944 3.87523 36809 ft 434 kts 153°
2026-05-05 14:59 49.06598 3.91775 36807 ft 434 kts 153°
2026-05-05 15:00 49.02107 3.95338 36809 ft 434 kts 153°
2026-05-05 15:00 48.95886 4.00261 36804 ft 434 kts 153°
2026-05-05 15:01 48.90517 4.04499 36809 ft 435 kts 153°
2026-05-05 15:01 48.85146 4.08729 36808 ft 435 kts 153°
2026-05-05 15:02 48.79870 4.13200 36805 ft 435 kts 146°
2026-05-05 15:02 48.75332 4.19246 36799 ft 437 kts 133°
2026-05-05 15:03 48.71692 4.26633 36795 ft 438 kts 127°
2026-05-05 15:03 48.68176 4.34167 36787 ft 438 kts 127°
2026-05-05 15:04 48.64651 4.41652 36783 ft 437 kts 127°
2026-05-05 15:04 48.61114 4.49136 36789 ft 439 kts 128°
2026-05-05 15:05 48.55767 4.60411 36787 ft 440 kts 128°
2026-05-05 15:06 48.52803 4.66643 36793 ft 440 kts 128°
2026-05-05 15:06 48.49225 4.74144 36798 ft 440 kts 128°
2026-05-05 15:07 48.45646 4.81628 36791 ft 440 kts 128°
2026-05-05 15:07 48.42063 4.89098 36797 ft 440 kts 128°
2026-05-05 15:08 48.38469 4.96572 36795 ft 442 kts 128°
2026-05-05 15:08 48.34879 5.04017 36798 ft 439 kts 128°
2026-05-05 15:09 48.31351 5.11528 36798 ft 441 kts 124°
2026-05-05 15:09 48.28590 5.19783 36802 ft 445 kts 114°
2026-05-05 15:10 48.26716 5.28622 36804 ft 447 kts 109°
2026-05-05 15:10 48.24924 5.37618 36805 ft 447 kts 110°
2026-05-05 15:11 48.23123 5.46531 36809 ft 447 kts 110°
2026-05-05 15:11 48.21310 5.55444 36813 ft 447 kts 110°
2026-05-05 15:12 48.19492 5.64348 36813 ft 447 kts 110°
2026-05-05 15:12 48.17664 5.73261 36816 ft 447 kts 110°
2026-05-05 15:13 48.15832 5.82153 36821 ft 447 kts 110°
2026-05-05 15:13 48.13991 5.91048 36823 ft 447 kts 110°
2026-05-05 15:14 48.12144 5.99931 36826 ft 447 kts 110°
2026-05-05 15:14 48.10291 6.08809 36828 ft 447 kts 110°
2026-05-05 15:15 48.08430 6.17683 36832 ft 447 kts 111°
2026-05-05 15:15 48.06561 6.26554 36836 ft 447 kts 111°
2026-05-05 15:16 48.04686 6.35417 36843 ft 447 kts 111°
2026-05-05 15:16 48.02802 6.44280 36845 ft 448 kts 111°
2026-05-05 15:17 48.00906 6.53163 36849 ft 448 kts 111°
2026-05-05 15:17 47.99012 6.62004 36853 ft 448 kts 111°
2026-05-05 15:18 47.96966 6.70770 36851 ft 445 kts 116°
2026-05-05 15:18 47.94630 6.79342 36847 ft 446 kts 115°
2026-05-05 15:19 47.92312 6.87919 36843 ft 446 kts 115°
2026-05-05 15:19 47.89982 6.96492 36842 ft 446 kts 115°
2026-05-05 15:20 47.87643 7.05052 36838 ft 447 kts 116°
2026-05-05 15:20 47.85294 7.13618 36836 ft 447 kts 116°
2026-05-05 15:21 47.82939 7.22177 36835 ft 447 kts 116°
2026-05-05 15:21 47.80580 7.30715 36838 ft 447 kts 116°
2026-05-05 15:22 47.78211 7.39262 36841 ft 447 kts 116°
2026-05-05 15:22 47.75833 7.47811 36839 ft 447 kts 116°
2026-05-05 15:23 47.73106 7.56041 36840 ft 443 kts 125°
2026-05-05 15:23 47.69576 7.63500 36841 ft 441 kts 130°
2026-05-05 15:24 47.65931 7.70825 36844 ft 442 kts 130°
2026-05-05 15:24 47.62281 7.78169 36848 ft 443 kts 130°
2026-05-05 15:25 47.58623 7.85506 36854 ft 444 kts 130°
2026-05-05 15:25 47.54964 7.92821 36843 ft 445 kts 130°
2026-05-05 15:26 47.51258 8.00210 36843 ft 445 kts 130°
2026-05-05 15:26 47.47585 8.07514 36847 ft 445 kts 131°
2026-05-05 15:27 47.43926 8.14771 36856 ft 446 kts 131°
2026-05-05 15:27 47.40216 8.22109 36864 ft 447 kts 131°
2026-05-05 15:28 47.36486 8.29468 36854 ft 448 kts 131°
2026-05-05 15:28 47.32741 8.36836 36860 ft 448 kts 131°
2026-05-05 15:29 47.28989 8.44199 36865 ft 449 kts 131°
2026-05-05 15:29 47.25238 8.51546 36867 ft 450 kts 131°
2026-05-05 15:30 47.21553 8.59000 36855 ft 449 kts 130°
2026-05-05 15:30 47.17894 8.66443 36857 ft 450 kts 131°
2026-05-05 15:31 47.14206 8.73889 36860 ft 450 kts 131°
2026-05-05 15:31 47.10533 8.81271 36863 ft 451 kts 131°
2026-05-05 15:31 47.08664 8.85021 37135 ft 445 kts 131°
2026-05-05 15:32 47.06853 8.88653 37359 ft 445 kts 131°
2026-05-05 15:32 47.05026 8.92303 37138 ft 451 kts 131°
2026-05-05 15:32 47.03163 8.96019 36915 ft 452 kts 131°
2026-05-05 15:33 46.99417 9.03495 36875 ft 453 kts 131°
2026-05-05 15:33 46.95717 9.10854 36881 ft 451 kts 131°
2026-05-05 15:34 46.92001 9.18229 36875 ft 450 kts 132°
2026-05-05 15:34 46.88257 9.25623 36884 ft 453 kts 132°
2026-05-05 15:35 46.84513 9.33013 36883 ft 451 kts 132°
2026-05-05 15:35 46.80773 9.40371 36863 ft 451 kts 132°
2026-05-05 15:36 46.77032 9.47709 36862 ft 450 kts 132°
2026-05-05 15:36 46.73296 9.55019 36875 ft 450 kts 133°
2026-05-05 15:37 46.69549 9.62331 36912 ft 450 kts 133°
2026-05-05 15:37 46.65798 9.69633 36921 ft 450 kts 133°
2026-05-05 15:38 46.62045 9.76918 36937 ft 450 kts 133°
2026-05-05 15:38 46.58278 9.84212 36930 ft 449 kts 133°
2026-05-05 15:39 46.54525 9.91461 36936 ft 450 kts 133°
2026-05-05 15:39 46.50764 9.98700 36932 ft 449 kts 133°
2026-05-05 15:40 46.47132 10.06090 36920 ft 454 kts 126°
2026-05-05 15:40 46.44034 10.14118 36941 ft 458 kts 125°
2026-05-05 15:41 46.40921 10.22185 36964 ft 460 kts 125°
2026-05-05 15:41 46.37767 10.30301 36996 ft 464 kts 125°
2026-05-05 15:42 46.34580 10.38479 36978 ft 466 kts 124°
2026-05-05 15:42 46.31426 10.46552 36972 ft 459 kts 124°
2026-05-05 15:43 46.28284 10.54548 36977 ft 462 kts 124°
2026-05-05 15:43 46.25095 10.62655 36984 ft 460 kts 124°
2026-05-05 15:44 46.21923 10.70694 36987 ft 461 kts 124°
2026-05-05 15:44 46.18740 10.78737 37008 ft 463 kts 124°
2026-05-05 15:45 46.15530 10.86820 37039 ft 466 kts 124°
2026-05-05 15:45 46.12317 10.94892 37049 ft 468 kts 124°
2026-05-05 15:46 46.09081 11.03003 37010 ft 462 kts 124°
2026-05-05 15:46 46.05884 11.10987 37018 ft 461 kts 124°
2026-05-05 15:47 46.02771 11.19077 37017 ft 464 kts 120°
2026-05-05 15:47 45.99977 11.27442 37002 ft 464 kts 120°
2026-05-05 15:48 45.97170 11.35806 37000 ft 464 kts 120°
2026-05-05 15:48 45.94354 11.44150 36999 ft 464 kts 120°
2026-05-05 15:49 45.91534 11.52475 37004 ft 464 kts 120°
2026-05-05 15:49 45.89178 11.59406 37008 ft 464 kts 120°
2026-05-05 15:50 45.86352 11.67697 37005 ft 463 kts 120°
2026-05-05 15:50 45.83515 11.75997 37009 ft 464 kts 120°
2026-05-05 15:51 45.80668 11.84300 37010 ft 464 kts 120°
2026-05-05 15:51 45.77818 11.92583 37008 ft 463 kts 120°
2026-05-05 15:52 45.74959 12.00867 37006 ft 464 kts 120°
2026-05-05 15:52 45.72095 12.09140 37007 ft 464 kts 120°
2026-05-05 15:53 45.69229 12.17395 36982 ft 464 kts 120°
2026-05-05 15:53 45.66352 12.25655 36988 ft 464 kts 120°
2026-05-05 15:54 45.63468 12.33908 36984 ft 464 kts 120°
2026-05-05 15:54 45.60577 12.42157 36990 ft 465 kts 120°
2026-05-05 15:55 45.57672 12.50420 36991 ft 465 kts 120°
2026-05-05 15:55 45.54792 12.58587 36991 ft 465 kts 120°
2026-05-05 15:56 45.51856 12.66888 36992 ft 465 kts 120°
2026-05-05 15:56 45.48936 12.75117 36989 ft 465 kts 120°
2026-05-05 15:57 45.46009 12.83343 36980 ft 465 kts 120°
2026-05-05 15:57 45.43097 12.91499 36980 ft 465 kts 120°
2026-05-05 15:58 45.40162 12.99697 36975 ft 465 kts 120°
2026-05-05 15:58 45.37213 13.07906 36976 ft 465 kts 120°
2026-05-05 15:59 45.34261 13.16101 36976 ft 466 kts 120°
2026-05-05 15:59 45.31307 13.24280 36980 ft 466 kts 120°
2026-05-05 16:00 45.28423 13.32546 36982 ft 467 kts 118°
2026-05-05 16:00 45.25600 13.40856 36987 ft 467 kts 119°
2026-05-05 16:01 45.22759 13.49140 36982 ft 467 kts 119°
2026-05-05 16:01 45.19901 13.57413 37007 ft 467 kts 119°
2026-05-05 16:02 45.17027 13.65703 37006 ft 468 kts 119°
2026-05-05 16:02 45.14154 13.73968 37015 ft 468 kts 119°
2026-05-05 16:03 45.11249 13.82297 37022 ft 469 kts 119°
2026-05-05 16:03 45.08375 13.90512 37034 ft 469 kts 119°
2026-05-05 16:04 45.05479 13.98764 37025 ft 469 kts 119°
2026-05-05 16:04 45.02575 14.07016 37026 ft 469 kts 119°
2026-05-05 16:05 44.99661 14.15269 37031 ft 469 kts 119°
2026-05-05 16:05 44.96747 14.23495 37024 ft 469 kts 119°
2026-05-05 16:06 44.93830 14.31709 37023 ft 468 kts 119°
2026-05-05 16:06 44.90901 14.39928 37022 ft 468 kts 119°
2026-05-05 16:07 44.87752 14.47936 37016 ft 467 kts 122°
2026-05-05 16:07 44.84542 14.55926 37016 ft 467 kts 122°
2026-05-05 16:08 44.81338 14.63880 37017 ft 468 kts 122°
2026-05-05 16:08 44.78121 14.71834 37019 ft 468 kts 122°
2026-05-05 16:09 44.74887 14.79805 37014 ft 469 kts 122°
2026-05-05 16:09 44.71644 14.87774 37023 ft 470 kts 122°
2026-05-05 16:10 44.68389 14.95750 37026 ft 471 kts 122°
2026-05-05 16:10 44.65118 15.03743 37039 ft 472 kts 122°
2026-05-05 16:11 44.61847 15.11715 37039 ft 472 kts 122°
2026-05-05 16:12 44.55281 15.27647 37050 ft 473 kts 122°
2026-05-05 16:13 44.46990 15.47635 37059 ft 474 kts 122°
2026-05-05 16:13 44.43666 15.55610 37065 ft 475 kts 122°
2026-05-05 16:14 44.37091 15.71575 37073 ft 476 kts 119°
2026-05-05 16:15 44.31026 15.88039 37066 ft 477 kts 119°
2026-05-05 16:16 44.24853 16.04426 37070 ft 477 kts 119°
2026-05-05 16:17 44.20206 16.16683 37068 ft 477 kts 119°
2026-05-05 16:18 44.15549 16.28913 37066 ft 477 kts 119°
2026-05-05 16:19 44.11470 16.41555 37070 ft 477 kts 114°
2026-05-05 16:19 44.07473 16.54232 37066 ft 477 kts 114°
2026-05-05 16:20 44.02113 16.71111 37064 ft 477 kts 114°
2026-05-05 16:22 43.95379 16.92159 37064 ft 477 kts 114°
2026-05-05 16:23 43.89956 17.08993 37057 ft 478 kts 115°
2026-05-05 16:23 43.85874 17.21589 37055 ft 478 kts 115°
2026-05-05 16:24 43.83133 17.30014 37068 ft 479 kts 114°
2026-05-05 16:25 43.79017 17.42620 37072 ft 479 kts 115°
2026-05-05 16:25 43.74886 17.55208 37074 ft 480 kts 115°
2026-05-05 16:26 43.69164 17.71862 37077 ft 479 kts 115°
2026-05-05 16:27 43.66305 17.80153 37072 ft 478 kts 115°
2026-05-05 16:27 43.63441 17.88443 37079 ft 478 kts 115°
2026-05-05 16:28 43.60583 17.96696 37068 ft 476 kts 115°
2026-05-05 16:28 43.57717 18.04942 37049 ft 476 kts 115°
2026-05-05 16:29 43.54851 18.13165 37055 ft 476 kts 115°
2026-05-05 16:29 43.51979 18.21381 37056 ft 476 kts 115°
2026-05-05 16:30 43.49119 18.29538 37056 ft 476 kts 116°
2026-05-05 16:30 43.46240 18.37727 37059 ft 476 kts 116°
2026-05-05 16:31 43.43350 18.45920 37066 ft 476 kts 116°
2026-05-05 16:31 43.40447 18.54126 37071 ft 476 kts 116°
2026-05-05 16:32 43.37548 18.62296 37075 ft 476 kts 115°
2026-05-05 16:32 43.34589 18.70432 37072 ft 476 kts 119°
2026-05-05 16:33 43.31147 18.78187 37068 ft 476 kts 121°
2026-05-05 16:33 43.27707 18.85920 37067 ft 475 kts 121°
2026-05-05 16:34 43.24256 18.93655 37064 ft 474 kts 121°
2026-05-05 16:34 43.21386 19.00068 37066 ft 474 kts 121°
2026-05-05 16:35 43.17908 19.07817 37063 ft 474 kts 121°
2026-05-05 16:35 43.14480 19.15435 37057 ft 473 kts 121°
2026-05-05 16:36 43.11036 19.23069 37057 ft 472 kts 121°
2026-05-05 16:36 43.07575 19.30721 37052 ft 472 kts 121°
2026-05-05 16:37 43.04119 19.38342 37048 ft 471 kts 121°
2026-05-05 16:37 43.00665 19.45941 37042 ft 470 kts 121°
2026-05-05 16:38 42.97216 19.53506 37039 ft 470 kts 121°
2026-05-05 16:38 42.93749 19.61094 37040 ft 470 kts 121°
2026-05-05 16:39 42.90283 19.68657 37042 ft 471 kts 121°
2026-05-05 16:39 42.86806 19.76228 37042 ft 471 kts 121°
2026-05-05 16:40 42.83327 19.83783 37041 ft 470 kts 121°
2026-05-05 16:40 42.79846 19.91320 37039 ft 471 kts 121°
2026-05-05 16:41 42.76351 19.98870 37051 ft 471 kts 121°
2026-05-05 16:41 42.72473 20.06079 37047 ft 473 kts 129°
2026-05-05 16:42 42.68280 20.12965 37042 ft 473 kts 128°
2026-05-05 16:42 42.64122 20.19816 37045 ft 474 kts 128°
2026-05-05 16:43 42.59919 20.26723 37039 ft 474 kts 128°
2026-05-05 16:43 42.55709 20.33627 37035 ft 474 kts 128°
2026-05-05 16:44 42.51499 20.40512 37037 ft 475 kts 128°
2026-05-05 16:44 42.47275 20.47404 37039 ft 475 kts 128°
2026-05-05 16:45 42.43055 20.54274 37039 ft 475 kts 128°
2026-05-05 16:45 42.38820 20.61151 37037 ft 475 kts 128°
2026-05-05 16:46 42.34582 20.68019 37041 ft 475 kts 128°
2026-05-05 16:46 42.30342 20.74874 37040 ft 475 kts 128°
2026-05-05 16:47 42.26093 20.81726 37041 ft 476 kts 128°
2026-05-05 16:47 42.21846 20.88560 37040 ft 476 kts 128°
2026-05-05 16:48 42.17591 20.95389 37041 ft 475 kts 128°
2026-05-05 16:48 42.13333 21.02209 37028 ft 475 kts 128°
2026-05-05 16:49 42.09522 21.09410 37008 ft 470 kts 117°
2026-05-05 16:49 42.06224 21.16989 36989 ft 470 kts 118°
2026-05-05 16:50 42.02891 21.24560 36985 ft 470 kts 118°
2026-05-05 16:50 41.99554 21.32116 36978 ft 471 kts 118°
2026-05-05 16:51 41.96201 21.39690 36983 ft 472 kts 118°
2026-05-05 16:51 41.92843 21.47257 36977 ft 472 kts 118°
2026-05-05 16:52 41.89474 21.54830 36977 ft 472 kts 118°
2026-05-05 16:52 41.86235 21.62092 36986 ft 473 kts 118°
2026-05-05 16:53 41.82875 21.69607 36981 ft 473 kts 118°
2026-05-05 16:53 41.79485 21.77171 36983 ft 473 kts 118°
2026-05-05 16:54 41.76091 21.84724 36994 ft 472 kts 118°
2026-05-05 16:54 41.72702 21.92248 36991 ft 472 kts 118°
2026-05-05 16:55 41.69331 21.99711 37000 ft 471 kts 118°
2026-05-05 16:55 41.65922 22.07243 36996 ft 470 kts 118°
2026-05-05 16:56 41.62557 22.14658 36989 ft 469 kts 118°
2026-05-05 16:56 41.59179 22.22081 36985 ft 467 kts 118°
2026-05-05 16:57 41.55799 22.29493 36985 ft 467 kts 119°
2026-05-05 16:57 41.52419 22.36888 36985 ft 466 kts 119°
2026-05-05 16:58 41.49046 22.44247 36989 ft 465 kts 119°
2026-05-05 16:58 41.45668 22.51600 36984 ft 464 kts 119°
2026-05-05 16:59 41.42300 22.58912 36976 ft 462 kts 119°
2026-05-05 16:59 41.38934 22.66204 36974 ft 462 kts 119°
2026-05-05 17:00 41.35565 22.73485 36978 ft 462 kts 120°
2026-05-05 17:00 41.32395 22.80900 36981 ft 459 kts 112°
2026-05-05 17:01 41.29969 22.88706 36973 ft 457 kts 110°
2026-05-05 17:01 41.27555 22.96518 36973 ft 457 kts 110°
2026-05-05 17:02 41.25123 23.04332 36977 ft 456 kts 110°
2026-05-05 17:02 41.22687 23.12127 36978 ft 456 kts 110°
2026-05-05 17:03 41.20610 23.20058 36965 ft 455 kts 105°
2026-05-05 17:03 41.18714 23.28050 36991 ft 455 kts 106°
2026-05-05 17:04 41.16745 23.36043 36998 ft 455 kts 106°
2026-05-05 17:04 41.14742 23.44017 36999 ft 455 kts 107°
2026-05-05 17:05 41.12732 23.51980 36986 ft 456 kts 107°
2026-05-05 17:05 41.10711 23.59959 37003 ft 456 kts 107°
2026-05-05 17:06 41.08690 23.67915 37000 ft 456 kts 107°
2026-05-05 17:06 41.06659 23.75883 37001 ft 456 kts 107°
2026-05-05 17:07 41.04622 23.83851 37005 ft 457 kts 107°
2026-05-05 17:07 41.02577 23.91820 37007 ft 457 kts 107°
2026-05-05 17:08 41.00519 23.99813 37007 ft 458 kts 107°
2026-05-05 17:08 40.98459 24.07787 37016 ft 459 kts 107°
2026-05-05 17:09 40.96386 24.15784 37025 ft 460 kts 107°
2026-05-05 17:09 40.94303 24.23797 37034 ft 460 kts 107°
2026-05-05 17:10 40.92214 24.31803 37047 ft 461 kts 107°
2026-05-05 17:10 40.90116 24.39816 37058 ft 461 kts 107°
2026-05-05 17:11 40.88018 24.47808 37061 ft 461 kts 107°
2026-05-05 17:11 40.85915 24.55791 37064 ft 460 kts 107°
2026-05-05 17:12 40.83804 24.63779 37058 ft 460 kts 107°
2026-05-05 17:12 40.81694 24.71737 37060 ft 459 kts 107°
2026-05-05 17:13 40.79579 24.79688 37053 ft 459 kts 107°
2026-05-05 17:13 40.77460 24.87626 37044 ft 458 kts 107°
2026-05-05 17:14 40.75355 24.95490 37042 ft 457 kts 107°
2026-05-05 17:14 40.73232 25.03396 37038 ft 457 kts 107°
2026-05-05 17:15 40.71097 25.11324 37032 ft 456 kts 107°
2026-05-05 17:15 40.68984 25.19142 37029 ft 455 kts 107°
2026-05-05 17:16 40.66854 25.26997 37024 ft 455 kts 107°
2026-05-05 17:16 40.64724 25.34831 37023 ft 455 kts 107°
2026-05-05 17:17 40.62589 25.42659 37023 ft 454 kts 107°
2026-05-05 17:17 40.60445 25.50493 37022 ft 454 kts 107°
2026-05-05 17:18 40.58300 25.58308 37020 ft 455 kts 107°
2026-05-05 17:18 40.56145 25.66135 37025 ft 455 kts 107°
2026-05-05 17:19 40.53988 25.73947 37021 ft 455 kts 107°
2026-05-05 17:19 40.52171 25.80508 37025 ft 456 kts 107°
2026-05-05 17:20 40.49485 25.88012 37025 ft 460 kts 119°
2026-05-05 17:20 40.45697 25.94797 37028 ft 463 kts 130°
2026-05-05 17:21 40.41424 26.01135 37034 ft 464 kts 129°
2026-05-05 17:22 40.35024 26.10691 37038 ft 465 kts 129°
2026-05-05 17:22 40.30741 26.17063 37046 ft 466 kts 129°
2026-05-05 17:23 40.26453 26.23426 37048 ft 467 kts 129°
2026-05-05 17:23 40.22150 26.29797 37051 ft 467 kts 129°
2026-05-05 17:24 40.17834 26.36174 37054 ft 468 kts 129°
2026-05-05 17:24 40.13502 26.42537 37056 ft 469 kts 131°
2026-05-05 17:25 40.08863 26.48542 37056 ft 470 kts 134°
2026-05-05 17:25 40.04191 26.54546 37059 ft 471 kts 134°
2026-05-05 17:26 39.99522 26.60537 37062 ft 471 kts 134°
2026-05-05 17:26 39.94841 26.66529 37064 ft 471 kts 134°
2026-05-05 17:27 39.90162 26.72504 37062 ft 471 kts 134°
2026-05-05 17:27 39.85508 26.78437 37035 ft 470 kts 134°
2026-05-05 17:27 39.83179 26.81400 36749 ft 467 kts 134°
2026-05-05 17:28 39.80863 26.84344 36231 ft 466 kts 134°
2026-05-05 17:28 39.78544 26.87288 35611 ft 465 kts 134°
2026-05-05 17:28 39.76235 26.90217 34982 ft 465 kts 134°
2026-05-05 17:28 39.73893 26.93123 34380 ft 464 kts 134°
2026-05-05 17:29 39.71523 26.96020 33716 ft 463 kts 134°
2026-05-05 17:29 39.69176 26.98883 32853 ft 465 kts 134°
2026-05-05 17:29 39.66832 27.01747 31980 ft 468 kts 134°
2026-05-05 17:29 39.64456 27.04652 31112 ft 471 kts 134°
2026-05-05 17:30 39.62064 27.07577 30347 ft 472 kts 133°
2026-05-05 17:30 39.59695 27.10471 29732 ft 469 kts 133°
2026-05-05 17:30 39.57326 27.13362 29139 ft 463 kts 133°
2026-05-05 17:30 39.54986 27.16215 28547 ft 459 kts 133°
2026-05-05 17:31 39.52672 27.19036 27947 ft 455 kts 133°
2026-05-05 17:31 39.50399 27.21822 27355 ft 450 kts 131°
2026-05-05 17:31 39.48320 27.24820 26807 ft 444 kts 128°
2026-05-05 17:31 39.46068 27.27552 26232 ft 446 kts 141°
2026-05-05 17:32 39.43395 27.29565 25663 ft 446 kts 155°
2026-05-05 17:32 39.40422 27.30700 25100 ft 446 kts 170°
2026-05-05 17:32 39.37337 27.30870 24563 ft 444 kts 185°
2026-05-05 17:32 39.34277 27.30424 24034 ft 440 kts 187°
2026-05-05 17:33 39.31249 27.29958 23500 ft 437 kts 187°
2026-05-05 17:33 39.28250 27.29503 22907 ft 433 kts 187°
2026-05-05 17:33 39.25255 27.29057 22325 ft 430 kts 187°
2026-05-05 17:33 39.22346 27.28629 21768 ft 426 kts 187°
2026-05-05 17:34 39.19365 27.28193 21202 ft 423 kts 187°
2026-05-05 17:34 39.16459 27.27768 20654 ft 419 kts 187°
2026-05-05 17:34 39.13565 27.27346 20124 ft 416 kts 187°
2026-05-05 17:34 39.10707 27.26930 19593 ft 413 kts 187°
2026-05-05 17:35 39.07864 27.26517 19088 ft 410 kts 187°
2026-05-05 17:35 39.05034 27.26106 18582 ft 407 kts 188°
2026-05-05 17:35 39.02228 27.25699 18036 ft 404 kts 188°
2026-05-05 17:35 38.99439 27.25294 17494 ft 401 kts 188°
2026-05-05 17:36 38.96679 27.24894 16945 ft 398 kts 188°
2026-05-05 17:36 38.93930 27.24495 16424 ft 395 kts 188°
2026-05-05 17:36 38.91211 27.24101 15918 ft 393 kts 188°
2026-05-05 17:36 38.88502 27.23708 15405 ft 390 kts 188°
2026-05-05 17:37 38.85810 27.23318 14890 ft 388 kts 187°
2026-05-05 17:37 38.83141 27.22932 14401 ft 385 kts 187°
2026-05-05 17:37 38.80491 27.22549 13911 ft 382 kts 187°
2026-05-05 17:37 38.77864 27.22170 13407 ft 379 kts 187°
2026-05-05 17:38 38.75243 27.21792 12875 ft 377 kts 187°
2026-05-05 17:38 38.72648 27.21418 12385 ft 374 kts 187°
2026-05-05 17:38 38.70099 27.21050 11886 ft 372 kts 187°
2026-05-05 17:38 38.67515 27.20677 11430 ft 368 kts 187°
2026-05-05 17:39 38.65003 27.20315 10932 ft 366 kts 187°
2026-05-05 17:39 38.62445 27.19947 10440 ft 364 kts 187°
2026-05-05 17:39 38.59973 27.19591 9998 ft 362 kts 187°
2026-05-05 17:39 38.57446 27.19229 9572 ft 356 kts 186°
2026-05-05 17:40 38.55049 27.19095 9368 ft 336 kts 176°
2026-05-05 17:40 38.52800 27.19476 9183 ft 316 kts 166°
2026-05-05 17:40 38.50732 27.20120 8992 ft 297 kts 165°
2026-05-05 17:40 38.48767 27.20721 8883 ft 285 kts 165°
2026-05-05 17:41 38.46881 27.21288 8735 ft 273 kts 166°
2026-05-05 17:41 38.45050 27.21836 8347 ft 270 kts 165°
2026-05-05 17:41 38.43247 27.22376 7993 ft 267 kts 166°
2026-05-05 17:41 38.41447 27.22917 7651 ft 265 kts 166°
2026-05-05 17:42 38.39666 27.23452 7307 ft 262 kts 166°
2026-05-05 17:42 38.37905 27.23982 6988 ft 259 kts 166°
2026-05-05 17:42 38.36160 27.24506 6646 ft 257 kts 166°
2026-05-05 17:42 38.34407 27.25032 6313 ft 254 kts 166°
2026-05-05 17:43 38.32697 27.25544 5944 ft 252 kts 166°
2026-05-05 17:43 38.30997 27.26053 5555 ft 251 kts 166°
2026-05-05 17:43 38.29326 27.26553 5199 ft 249 kts 166°
2026-05-05 17:43 38.27655 27.27052 5018 ft 246 kts 166°
2026-05-05 17:44 38.25952 27.27562 4991 ft 249 kts 166°
2026-05-05 17:44 38.24289 27.28060 4989 ft 248 kts 166°
2026-05-05 17:44 38.22606 27.28564 4992 ft 249 kts 166°
2026-05-05 17:44 38.20919 27.29067 4991 ft 249 kts 166°
2026-05-05 17:45 38.19238 27.29569 4988 ft 249 kts 166°
2026-05-05 17:45 38.17552 27.30072 4991 ft 249 kts 166°
2026-05-05 17:45 38.15866 27.30575 4992 ft 249 kts 166°
2026-05-05 17:45 38.14175 27.31078 4989 ft 249 kts 166°
2026-05-05 17:46 38.12492 27.31580 4990 ft 249 kts 166°
2026-05-05 17:46 38.10805 27.32082 4988 ft 249 kts 167°
2026-05-05 17:46 38.09096 27.32127 4999 ft 250 kts 195°
2026-05-05 17:46 38.07593 27.31113 4989 ft 238 kts 227°
2026-05-05 17:47 38.06793 27.29427 4987 ft 214 kts 259°
2026-05-05 17:47 38.06529 27.27663 5019 ft 194 kts 265°
2026-05-05 17:47 38.06352 27.26090 4991 ft 163 kts 266°
2026-05-05 17:47 38.06196 27.24762 4971 ft 149 kts 271°
2026-05-05 17:48 38.06423 27.23513 4774 ft 144 kts 306°
2026-05-05 17:48 38.07112 27.22666 4560 ft 136 kts 332°
2026-05-05 17:48 38.07971 27.22176 4366 ft 135 kts 344°
2026-05-05 17:48 38.08873 27.21854 4176 ft 134 kts 348°
2026-05-05 17:49 38.09776 27.21580 3990 ft 134 kts 348°
2026-05-05 17:49 38.10684 27.21306 3811 ft 134 kts 348°
2026-05-05 17:49 38.11586 27.21034 3630 ft 132 kts 348°
2026-05-05 17:49 38.12484 27.20763 3453 ft 133 kts 348°
2026-05-05 17:50 38.13381 27.20493 3273 ft 132 kts 348°
2026-05-05 17:50 38.14275 27.20223 3100 ft 132 kts 348°
2026-05-05 17:50 38.15168 27.19953 2914 ft 132 kts 348°
2026-05-05 17:50 38.16056 27.19685 2743 ft 131 kts 347°
2026-05-05 17:51 38.16948 27.19416 2560 ft 131 kts 347°
2026-05-05 17:51 38.17833 27.19149 2385 ft 131 kts 347°
2026-05-05 17:51 38.18724 27.18880 2207 ft 133 kts 347°
2026-05-05 17:51 38.19631 27.18606 2036 ft 134 kts 347°
2026-05-05 17:52 38.20535 27.18333 1846 ft 133 kts 347°
2026-05-05 17:52 38.21428 27.18063 1673 ft 131 kts 347°
2026-05-05 17:52 38.22315 27.17795 1490 ft 132 kts 347°
2026-05-05 17:52 38.23212 27.17522 1316 ft 132 kts 347°
2026-05-05 17:53 38.24102 27.17254 1140 ft 132 kts 346°
2026-05-05 17:53 38.24987 27.16987 973 ft 131 kts 346°
2026-05-05 17:53 38.25874 27.16718 795 ft 130 kts 346°
2026-05-05 17:53 38.26753 27.16450 636 ft 130 kts 346°
2026-05-05 17:54 38.27636 27.16178 450 ft 130 kts 347°
2026-05-05 17:54 38.28498 27.15927 386 ft 120 kts 348°
2026-05-05 17:54 38.29049 27.15769 391 ft 54 kts 347°
2026-05-05 17:54 38.29350 27.15674 397 ft 42 kts 345°
2026-05-05 17:55 38.29613 27.15585 402 ft 24 kts 346°
2026-05-05 17:55 38.29745 27.15516 404 ft 21 kts 327°
2026-05-05 17:55 38.29856 27.15403 406 ft 19 kts 317°
2026-05-05 17:55 38.29875 27.15382 406 ft 0 kts 317°
2026-05-05 17:56 38.29882 27.15374 406 ft 3 kts 317°
2026-05-05 17:56 38.29905 27.15346 406 ft 6 kts 316°
2026-05-05 17:56 38.29944 27.15299 406 ft 9 kts 317°
2026-05-05 17:57 38.29983 27.15234 407 ft 10 kts 283°
2026-05-05 17:57 38.29970 27.15141 407 ft 12 kts 257°
2026-05-05 17:57 38.29950 27.15032 408 ft 14 kts 256°
2026-05-05 17:57 38.29888 27.14970 408 ft 13 kts 177°
2026-05-05 17:58 38.29784 27.14998 406 ft 17 kts 165°
2026-05-05 17:58 38.29659 27.15036 404 ft 18 kts 167°
2026-05-05 17:58 38.29577 27.15057 403 ft 12 kts 173°
2026-05-05 17:58 38.29536 27.14994 402 ft 10 kts 253°
2026-05-05 17:59 38.29533 27.14981 402 ft 0 kts 255°